Location: Alafon
(8.4500°N, 4.2333°E)
Time: 00:33:57
(UTC+00:00)

Cosmos 1939 Rocket - Pass Details

Date: 05 July 2020
Orbit: 532 x 584 km, 97.4° (Epoch: 06 August)

Event Time Altitude Azimuth Distance (km) Brightness Sun altitude
Rises 18:28:21 0° 169° (S) 2,796 6.1 -6.0°
Reaches altitude 10° 18:30:31 10° 169° (S) 1,893 5.2 -6.4°
Maximum altitude 18:34:37 88° 251° (WSW) 580 2.9 -7.4°
Drops below altitude 10° 18:38:41 10° 348° (NNW) 1,868 6.1 -8.3°
Sets 18:40:49 0° 349° (N) 2,756 6.9 -8.8°
